Regional Weather Roundup
Issued by NWS Raleigh/Durham, NC

Home | Current Version | Previous Version | Text Only | Print | Product List | Glossary On
Versions: 1 2 3 4 5 6 7 8 9 10 11 12 13 14 15 16 17 18 19 20 21 22 23 24 25 26 27 28 29 30 31 32 33 34 35 36 37 38 39 40 41 42 43 44 45 46 47 48 49 50
000
ASUS42 KRAH 050810
RWRRAH
NORTH CAROLINA WEATHER ROUNDUP
NATIONAL WEATHER SERVICE RALEIGH NC
300 AM EST THU MAR 05 2015

NOTE: "FAIR" INDICATES FEW OR NO CLOUDS BELOW 12,000 FEET WITH NO
SIGNIFICANT WEATHER AND/OR OBSTRUCTIONS TO VISIBILITY.

NCZ001-053-055-056-065-067-050900-
WESTERN NORTH CAROLINA

CITY           SKY/WX    TMP DP  RH WIND       PRES   REMARKS
ASHEVILLE      CLOUDY    51  46  83 N10       29.87F
JEFFERSON      FOG       47  47  99 CALM      29.88F VSB 1
MORGANTON      CLOUDY    64  60  87 W3        29.88S
HICKORY        CLOUDY    63  60  90 S13G22    29.83F
RUTHERFORDTON  CLOUDY    63  62  95 S5G22     29.85F
MOUNT AIRY     DRIZZLE   53  50  90 N5        29.89S
BOONE          PTCLDY    48  47  97 W8        29.89F
$$

NCZ021-022-025-041-071-084-088-050900-
CENTRAL NORTH CAROLINA

CITY           SKY/WX    TMP DP  RH WIND       PRES   REMARKS
CHARLOTTE      CLOUDY    61  58  90 S8        29.87F
GREENSBORO     LGT RAIN  63  59  87 SW7       29.85S
WINSTON-SALEM  CLOUDY    66  58  75 SW6       29.86S
RALEIGH-DURHAM LGT RAIN  65  58  78 SW15G25   29.86F
FORT BRAGG     PTCLDY    64  61  89 S6        29.89F
FAYETTEVILLE   PTCLDY    65  61  87 SW9       29.90F
BURLINGTON     CLOUDY    66  55  67 SW9       29.85F
LAURINBURG     MOCLDY    63  60  90 SW12      29.92S
$$

NCZ011-015-027-028-043-044-047-080-103-050900-
NORTHEASTERN NORTH CAROLINA

CITY           SKY/WX    TMP DP  RH WIND       PRES   REMARKS
ROCKY MT-WILSO PTCLDY    65  61  87 SW14      29.88S
GREENVILLE     PTCLDY    64  63  94 SW12G18   29.91F
WASHINGTON     PTCLDY    67  62  85 SW13      29.90F
ELIZABETH CITY CLEAR     60  58  92 SW9       29.89S
MANTEO         PTCLDY    59  57  94 SW15      29.91F
CAPE HATTERAS  FOG       56  56 100 SW12      29.95F VSB 3/4
$$

NCZ078-087-090-091-093-098-101-050900-
SOUTHEASTERN NORTH CAROLINA

CITY           SKY/WX    TMP DP  RH WIND       PRES   REMARKS
LUMBERTON      CLEAR     65  61  87 S9        29.91F
GOLDSBORO      PTCLDY    65  65 100 SW10      29.88F
KINSTON        PTCLDY    65  62  89 SW12      29.91F
KENANSVILLE    CLEAR     65  61  86 SW3       29.93F
NEW BERN       PTCLDY    68  63  84 SW12G21   29.93F
CHERRY POINT   CLOUDY    68  64  87 SW22G35   29.94F
BEAUFORT       FOG       58  58 100 SW10      29.97F VSB 3/4
JACKSONVILLE   PTCLDY    70  65  84 SW15G25   29.93F
WILMINGTON     CLOUDY    68  65  90 SW22G35   29.95F
$$




USA.gov is the U.S. government's official web portal to all federal, state and local government web resources and services.